Previsão horária em Bolshie Kabany

Hoje, 5 Março, Sexta-feira

Tempo Temperatura Precipitação Vento Pressão Humidade
00:00 -11°C° 0 mm 4 m/s 739 mmHg 92%
01:00 -10°C° 0 mm 3 m/s 739 mmHg 93%
02:00 -12°C° 0 mm 3 m/s 740 mmHg 94%
03:00 -12°C° 0 mm 2 m/s 740 mmHg 95%
04:00 -12°C° 0 mm 2 m/s 740 mmHg 95%
05:00 -13°C° 0 mm 2 m/s 741 mmHg 95%
06:00 -11°C° 0 mm 1 m/s 741 mmHg 95%
07:00 -10°C° 0 mm 1 m/s 741 mmHg 94%
08:00 -12°C° 0 mm 2 m/s 742 mmHg 94%
09:00 -10°C° 0 mm 2 m/s 742 mmHg 93%
10:00 -9°C° 0 mm 2 m/s 742 mmHg 91%
11:00 -8°C° 0 mm 2 m/s 743 mmHg 89%
12:00 -7°C° 0 mm 2 m/s 743 mmHg 87%
13:00 -7°C° 0 mm 2 m/s 744 mmHg 88%
14:00 -8°C° 0 mm 3 m/s 744 mmHg 89%
15:00 -8°C° 0 mm 3 m/s 744 mmHg 90%
16:00 -9°C° 0 mm 3 m/s 745 mmHg 91%
17:00 -10°C° 0 mm 3 m/s 745 mmHg 92%
18:00 -13°C° 0 mm 3 m/s 746 mmHg 93%
19:00 -13°C° 0 mm 3 m/s 746 mmHg 93%
20:00 -14°C° 0 mm 3 m/s 747 mmHg 94%
21:00 -14°C° 0 mm 3 m/s 747 mmHg 94%
22:00 -15°C° 0 mm 3 m/s 747 mmHg 94%
23:00 -15°C° 0 mm 3 m/s 747 mmHg 94%

Amanhã, 6 Março, Sábado

Tempo Temperatura Precipitação Vento Pressão Humidade
00:00 -14°C° 0 mm 2 m/s 747 mmHg 94%
01:00 -14°C° 0.1 mm 3 m/s 747 mmHg 94%
02:00 -14°C° 0.1 mm 3 m/s 748 mmHg 94%
03:00 -14°C° 0.1 mm 4 m/s 748 mmHg 94%
04:00 -14°C° 0 mm 4 m/s 749 mmHg 95%
05:00 -15°C° 0 mm 4 m/s 749 mmHg 95%
06:00 -15°C° 0 mm 4 m/s 749 mmHg 95%
07:00 -16°C° 0 mm 4 m/s 749 mmHg 94%
08:00 -16°C° 0 mm 4 m/s 750 mmHg 94%
09:00 -16°C° 0 mm 4 m/s 750 mmHg 93%
10:00 -15°C° 0 mm 4 m/s 751 mmHg 91%
11:00 -14°C° 0 mm 4 m/s 751 mmHg 89%
12:00 -14°C° 0 mm 4 m/s 751 mmHg 86%
13:00 -14°C° 0 mm 4 m/s 751 mmHg 87%
14:00 -14°C° 0 mm 4 m/s 751 mmHg 87%
15:00 -14°C° 0 mm 4 m/s 751 mmHg 87%
16:00 -14°C° 0 mm 3 m/s 751 mmHg 89%
17:00 -14°C° 0 mm 2 m/s 751 mmHg 90%
18:00 -16°C° 0 mm 2 m/s 751 mmHg 92%
19:00 -16°C° 0 mm 2 m/s 751 mmHg 93%
20:00 -16°C° 0 mm 2 m/s 751 mmHg 93%
21:00 -16°C° 0 mm 2 m/s 751 mmHg 94%
22:00 -16°C° 0 mm 2 m/s 751 mmHg 95%
23:00 -17°C° 0 mm 2 m/s 750 mmHg 95%

Depois de amanhã, 7 Março, Domingo

Tempo Temperatura Precipitação Vento Pressão Humidade
00:00 -17°C° 0 mm 2 m/s 750 mmHg 96%
01:00 -18°C° 0 mm 2 m/s 750 mmHg 97%
02:00 -17°C° 0 mm 1 m/s 750 mmHg 98%
03:00 -17°C° 0 mm 1 m/s 750 mmHg 98%
04:00 -18°C° 0 mm 1 m/s 749 mmHg 99%
05:00 -18°C° 0 mm 1 m/s 749 mmHg 99%
06:00 -19°C° 0 mm 1 m/s 749 mmHg 99%
07:00 -17°C° 0 mm 1 m/s 749 mmHg 98%
08:00 -16°C° 0 mm 1 m/s 749 mmHg 97%
09:00 -14°C° 0 mm 1 m/s 749 mmHg 95%
10:00 -15°C° 0 mm 2 m/s 749 mmHg 94%
11:00 -14°C° 0 mm 2 m/s 748 mmHg 93%
12:00 -14°C° 0 mm 3 m/s 748 mmHg 92%
13:00 -13°C° 0 mm 3 m/s 748 mmHg 92%
14:00 -13°C° 0 mm 3 m/s 747 mmHg 92%
15:00 -14°C° 0 mm 4 m/s 746 mmHg 93%
16:00 -15°C° 0 mm 4 m/s 746 mmHg 94%
17:00 -15°C° 0 mm 4 m/s 745 mmHg 94%
18:00 -16°C° 0 mm 4 m/s 745 mmHg 95%
19:00 -15°C° 0 mm 5 m/s 744 mmHg 94%
20:00 -13°C° 0 mm 5 m/s 744 mmHg 93%
21:00 -12°C° 0 mm 6 m/s 743 mmHg 92%
22:00 -13°C° 0.3 mm 7 m/s 742 mmHg 92%
23:00 -13°C° 0.3 mm 7 m/s 741 mmHg 93%

8 Março, Segunda-feira

Tempo Temperatura Precipitação Vento Pressão Humidade
00:00 -13°C° 0.3 mm 8 m/s 740 mmHg 93%
01:00 -12°C° 0.4 mm 8 m/s 739 mmHg 93%
02:00 -12°C° 0.4 mm 8 m/s 738 mmHg 93%
03:00 -11°C° 0.4 mm 8 m/s 737 mmHg 94%
04:00 -12°C° 0.4 mm 7 m/s 737 mmHg 92%
05:00 -12°C° 0.4 mm 7 m/s 737 mmHg 91%
06:00 -12°C° 0.4 mm 6 m/s 736 mmHg 89%
07:00 -12°C° 0 mm 6 m/s 736 mmHg 89%
08:00 -13°C° 0 mm 7 m/s 737 mmHg 88%
09:00 -13°C° 0 mm 7 m/s 737 mmHg 88%
10:00 -12°C° 0 mm 7 m/s 737 mmHg 86%
11:00 -12°C° 0 mm 7 m/s 738 mmHg 84%
12:00 -11°C° 0 mm 7 m/s 738 mmHg 82%
13:00 -11°C° 0 mm 7 m/s 738 mmHg 83%
14:00 -9°C° 0 mm 7 m/s 738 mmHg 84%
15:00 -9°C° 0 mm 7 m/s 738 mmHg 85%
16:00 -10°C° 0.2 mm 6 m/s 738 mmHg 87%
17:00 -9°C° 0.2 mm 4 m/s 737 mmHg 89%
18:00 -9°C° 0.2 mm 3 m/s 737 mmHg 91%
19:00 -10°C° 0 mm 3 m/s 738 mmHg 92%
20:00 -12°C° 0 mm 3 m/s 738 mmHg 93%
21:00 -14°C° 0 mm 4 m/s 738 mmHg 93%
22:00 -14°C° 0 mm 4 m/s 739 mmHg 93%
23:00 -14°C° 0 mm 4 m/s 739 mmHg 93%

9 Março, Terça-feira

Tempo Temperatura Precipitação Vento Pressão Humidade
00:00 -14°C° 0 mm 5 m/s 739 mmHg 92%
01:00 -14°C° 0 mm 5 m/s 740 mmHg 92%
02:00 -14°C° 0 mm 5 m/s 740 mmHg 93%
03:00 -14°C° 0 mm 4 m/s 741 mmHg 93%
04:00 -14°C° 0 mm 4 m/s 741 mmHg 93%
05:00 -15°C° 0 mm 4 m/s 742 mmHg 94%
06:00 -15°C° 0 mm 4 m/s 742 mmHg 94%
07:00 -15°C° 0 mm 4 m/s 743 mmHg 94%
08:00 -16°C° 0 mm 4 m/s 743 mmHg 93%
09:00 -16°C° 0 mm 4 m/s 744 mmHg 93%
10:00 -15°C° 0 mm 4 m/s 744 mmHg 91%
11:00 -14°C° 0 mm 4 m/s 745 mmHg 90%
12:00 -14°C° 0 mm 4 m/s 746 mmHg 89%
13:00 -14°C° 0 mm 4 m/s 746 mmHg 89%
14:00 -14°C° 0 mm 4 m/s 747 mmHg 88%
15:00 -14°C° 0 mm 4 m/s 747 mmHg 87%
16:00 -15°C° 0 mm 4 m/s 747 mmHg 90%
17:00 -15°C° 0 mm 3 m/s 747 mmHg 92%
18:00 -15°C° 0 mm 3 m/s 748 mmHg 94%
19:00 -15°C° 0.1 mm 2 m/s 748 mmHg 95%
20:00 -15°C° 0.1 mm 2 m/s 749 mmHg 95%
21:00 -15°C° 0.1 mm 2 m/s 749 mmHg 95%
22:00 -16°C° 0 mm 2 m/s 749 mmHg 95%
23:00 -16°C° 0 mm 2 m/s 749 mmHg 95%

10 Março, Quarta-feira

Tempo Temperatura Precipitação Vento Pressão Humidade
00:00 -16°C° 0 mm 2 m/s 749 mmHg 95%
01:00 -17°C° 0 mm 2 m/s 749 mmHg 96%
02:00 -17°C° 0 mm 2 m/s 749 mmHg 96%
03:00 -18°C° 0 mm 3 m/s 749 mmHg 96%
04:00 -19°C° 0 mm 3 m/s 749 mmHg 96%
05:00 -21°C° 0 mm 3 m/s 750 mmHg 97%
06:00 -22°C° 0 mm 3 m/s 750 mmHg 97%
07:00 -22°C° 0 mm 3 m/s 750 mmHg 96%
08:00 -22°C° 0 mm 3 m/s 750 mmHg 95%
09:00 -22°C° 0 mm 4 m/s 750 mmHg 95%
10:00 -21°C° 0 mm 3 m/s 751 mmHg 93%
11:00 -19°C° 0 mm 3 m/s 751 mmHg 92%
12:00 -19°C° 0 mm 3 m/s 751 mmHg 90%
13:00 -18°C° 0 mm 3 m/s 751 mmHg 90%
14:00 -18°C° 0 mm 3 m/s 751 mmHg 89%
15:00 -18°C° 0 mm 3 m/s 751 mmHg 88%
16:00 -19°C° 0 mm 3 m/s 752 mmHg 91%
17:00 -22°C° 0 mm 3 m/s 752 mmHg 93%
18:00 -23°C° 0 mm 3 m/s 752 mmHg 96%
19:00 -23°C° 0 mm 2 m/s 752 mmHg 96%
20:00 -25°C° 0 mm 2 m/s 753 mmHg 96%
21:00 -26°C° 0 mm 2 m/s 753 mmHg 96%
22:00 -27°C° 0 mm 2 m/s 753 mmHg 96%
23:00 -25°C° 0 mm 1 m/s 753 mmHg 97%
Mostrar mais